Jacksonville, AR

9:44 PM CDT on August 23, 2016 (GMT -0500)
Little Rock Air Force Base

Weather History for KLRF - May, 2013

Change the Weather History Date:

Tuesday, May 7, 2013

  Actual Average Record
Temperature  
Mean Temperature 66 °F -  
Max Temperature 78 °F 79 °F 90 °F (2007)
Min Temperature 54 °F 56 °F 38 °F (1992)
Growing Degree Days 16 (Base 50)    
Moisture  
Dew Point 55 °F    
Average Humidity 69    
Maximum Humidity 93    
Minimum Humidity 44    
Precipitation  
Precipitation 0.00 in - - ()
Sea Level Pressure  
Sea Level Pressure 30.02 in    
Wind  
Wind Speed 5 mph (NNW)    
Max Wind Speed 8 mph    
Max Gust Speed -    
Visibility 10 miles    
Events      
Averages and records for this station are not official NWS values.
T = Trace of Precipitation, MM = Missing Value Source: NWS Daily Summary

Daily Weather History Graph

Daily Weather History Graph

Search for Another Location

Airport or City:

Trip Planner

Search our weather history database for the weather conditions in past years. The results will help you decide how hot, cold, wet, or windy it might be!

Date:

Astronomy

May. 07, 2013 Rise Set
Actual Time 6:11 AM CDT 7:59 PM CDT
Civil Twilight 5:44 AM CDT 8:26 PM CDT
Nautical Twilight 5:11 AM CDT 8:59 PM CDT
Astronomical Twilight 4:35 AM CDT 9:35 PM CDT
Moon 4:41 AM CDT (5/7) 6:03 PM CDT (5/7)
Length of Visible Light 14h 42m
Length of Day
13h 47m
Waning Crescent, 5% of the Moon is Illuminated
May 7
Waning Crescent
May 9
New
May 17
First Quarter
May 24
Full
May 31
Last Quarter

Hourly Weather History & Observations

Time (CDT) Temp. Dew Point Humidity Pressure Visibility Wind Dir Wind Speed Gust Speed Precip Events Conditions
12:58 AM 63.9 °F 53.8 °F 70% 30.01 in 10.0 mi West 4.6 mph - N/A   Overcast
1:58 AM 62.6 °F 53.2 °F 71% 30.00 in 10.0 mi NW 4.6 mph - N/A   Partly Cloudy
2:58 AM 61.3 °F 52.7 °F 73% 29.98 in 10.0 mi NNW 6.9 mph - N/A   Clear
3:58 AM 59.2 °F 52.3 °F 78% 29.99 in 10.0 mi West 4.6 mph - N/A   Clear
4:58 AM 55.9 °F 52.5 °F 88% 30.01 in 10.0 mi West 6.9 mph - N/A   Clear
5:58 AM 54.1 °F 51.4 °F 91% 30.02 in 10.0 mi West 5.8 mph - N/A   Clear
6:58 AM 56.1 °F 52.5 °F 88% 30.04 in 10.0 mi WNW 3.5 mph - N/A   Clear
7:58 AM 60.1 °F 53.6 °F 79% 30.05 in 10.0 mi WNW 4.6 mph - N/A   Clear
8:58 AM 65.3 °F 54.9 °F 69% 30.06 in 10.0 mi Variable 6.9 mph - N/A   Clear
9:58 AM 67.6 °F 55.4 °F 65% 30.06 in 10.0 mi Variable 5.8 mph - N/A   Clear
10:58 AM 70.7 °F 55.9 °F 59% 30.06 in 9.0 mi NW 5.8 mph - N/A   Clear
11:58 AM 73.2 °F 55.2 °F 53% 30.06 in 10.0 mi NNW 6.9 mph - N/A   Partly Cloudy
12:58 PM 75.6 °F 55.8 °F 50% 30.04 in 10.0 mi NNW 5.8 mph - N/A   Scattered Clouds
1:58 PM 77.2 °F 56.5 °F 49% 30.03 in 10.0 mi ENE 5.8 mph - N/A   Partly Cloudy
2:58 PM 77.5 °F 53.8 °F 44% 30.01 in 10.0 mi North 1.2 mph - N/A   Scattered Clouds
3:58 PM 76.6 °F 54.7 °F 46% 30.01 in 10.0 mi East 3.5 mph - N/A   Scattered Clouds
4:58 PM 77.5 °F 55.0 °F 46% 30.00 in 10.0 mi ENE 3.5 mph - N/A   Partly Cloudy
5:58 PM 76.5 °F 57.9 °F 53% 30.00 in 10.0 mi East 8.1 mph - N/A   Clear
6:58 PM 73.8 °F 57.6 °F 57% 30.00 in 10.0 mi East 5.8 mph - N/A   Clear
7:58 PM 71.4 °F 58.3 °F 63% 30.01 in 10.0 mi Calm Calm - N/A   Clear
8:58 PM 64.8 °F 59.0 °F 82% 30.02 in 10.0 mi Calm Calm - N/A   Clear
9:58 PM 61.9 °F 57.7 °F 86% 30.04 in 10.0 mi Calm Calm - N/A   Clear
10:58 PM 59.5 °F 57.4 °F 93% 30.04 in 10.0 mi ENE 2.3 mph - N/A   Clear
11:58 PM 58.3 °F 56.3 °F 93% 30.04 in 10.0 mi Calm Calm - N/A   Clear